Regional Weather Roundup
Issued by NWS

Home | Current Version | Previous Version | Graphics & Text | Print | Product List | Glossary On
Versions: 1 2 3 4 5 6 7 8 9 10 11 12 13 14 15 16 17 18 19 20 21 22 23 24 25 26 27 28 29 30 31 32 33 34 35 36 37 38 39 40 41 42 43 44 45 46 47 48 49 50
000
ASUS43 KMKX 311411
RWRWI

WISCONSIN REGIONAL WEATHER ROUNDUP
NATIONAL WEATHER SERVICE MILWAUKEE/SULLIVAN WI
900 AM CDT WED AUG 31 2016

NOTE: "FAIR" INDICATES FEW OR NO CLOUDS BELOW 12,000 FEET WITH NO
SIGNIFICANT WEATHER AND/OR OBSTRUCTIONS TO VISIBILITY.

WIZ001-002-006>008-014>016-023>028-311500-
NORTHWEST WISCONSIN

CITY           SKY/WX    TMP DP  RH WIND       PRES   REMARKS
SUPERIOR ARPT  SUNNY     59  55  86 CALM      30.21S
ASHLAND        SUNNY     63  57  81 NW5       30.19F
HAYWARD        SUNNY     56  54  93 CALM      30.21S
SIREN          SUNNY     58  54  86 CALM      30.22S
CUMBERLAND     SUNNY     61  54  77 N3        30.21S
RICE LAKE      SUNNY     59  58  96 CALM      30.21F
CHETEK         NOT AVBL
LADYSMITH      SUNNY     60  56  84 N3        30.21S
EAU CLAIRE     SUNNY     63  55  75 NE5       30.18S
MENOMONIE      SUNNY     61  55  81 NW6       30.20S
NEW RICHMOND   SUNNY     59  59 100 CALM      30.21S
OSCEOLA        SUNNY     57  57 100 CALM      30.24S
$$

WIZ003>005-009-010-017-018-311500-
NORTH CENTRAL WISCONSIN

CITY           SKY/WX    TMP DP  RH WIND       PRES   REMARKS
MANITOWISH WTR NOT AVBL
ARBOR VITAE    SUNNY     62  57  84 N8        30.19S
WOODRUFF       SUNNY     62  57  84 N8        30.19S
RHINELANDER    SUNNY     62  57  83 N6        30.19R
EAGLE RIVER    SUNNY     61  57  87 N6        30.17F
LAND O LAKES   SUNNY     63  56  76 N8        30.19S
PHILLIPS       SUNNY     59  56  90 N5        30.19S
TOMAHAWK       SUNNY     57  55  93 CALM      30.19S
MEDFORD        SUNNY     60  60 100 CALM      30.18S
MERRILL        SUNNY     59  57  92 CALM      30.18S
$$

WIZ029-030-035-036-043>047-311500-
CENTRAL WISCONSIN

CITY           SKY/WX    TMP DP  RH WIND       PRES   REMARKS
WAUSAU         SUNNY     60  53  77 N5        30.16R
MOSINEE        SUNNY     57  55  94 NW6       30.17S
MARSHFIELD     SUNNY     64  54  69 N3        30.17R
STEVENS POINT  SUNNY     58  52  80 N3        30.17R
WAUPACA        MOSUNNY   65  56  73 CALM      30.16R
WAUTOMA        MOSUNNY   65  55  70 CALM      30.16S
WISC RAPIDS    SUNNY     64  55  72 N5        30.18R
CAMP DOUGLAS   MOSUNNY   63  57  82 NW5       30.16S
$$

WIZ011>013-019>022-031-037>040-048>050-311500-
NORTHEAST WISCONSIN

CITY           SKY/WX    TMP DP  RH WIND       PRES   REMARKS
ANTIGO         SUNNY     58  56  90 CALM      30.17S
SHAWANO        SUNNY     62  56  79 CALM      30.15R
OCONTO         NOT AVBL
STURGEON BAY   SUNNY     65  59  81 MISG      30.13R
GREEN BAY      SUNNY     65  58  78 VRB3      30.13S
MANITOWOC      SUNNY     67  56  67 N9        30.13R
APPLETON       MOSUNNY   63  54  72 NW6       30.12S
CLINTONVILLE   SUNNY     61  52  72 N5        30.14S
OSHKOSH        SUNNY     67  54  63 NW6       30.13S
$$

WIZ032>034-041-042-053>061-311500-
SOUTHWEST WISCONSIN

CITY           SKY/WX    TMP DP  RH WIND       PRES   REMARKS
LA CROSSE      SUNNY     64  60  87 NW7       30.17S
SPARTA         SUNNY     56  56 100 CALM      30.18S
VIROQUA        SUNNY     64  57  77 N6        30.17S
BOSCOBEL       SUNNY     67  58  72 VRB3      30.15S
PRAIRIE DU CHI SUNNY     65  57  75 CALM      30.14S
PLATTEVILLE    CLOUDY    64  64 100 N7        30.14S
$$

WIZ056-057-062-063-064-067-068-311500-
SOUTH CENTRAL WISCONSIN

CITY           SKY/WX    TMP DP  RH WIND       PRES   REMARKS
REEDSBURG      NOT AVBL
BARABOO/DELLS  SUNNY     64  55  75 CALM      30.15S
LONE ROCK      CLOUDY    67  60  78 NE6       30.15S
MINERAL POINT  CLOUDY    64  63  94 NE7       30.14S
MADISON        MOSUNNY   66  61  84 N8        30.13S
MIDDLETON      PTSUNNY   67  62  85 N5        30.14S
WATERTOWN      MOSUNNY   65  58  78 N8        30.12S
MONROE         CLOUDY    64  61  88 N13       30.13R
JANESVILLE     MOSUNNY   68  63  83 N7        30.10S
$$

WIZ051-052-058>065-066-070>072-311500-
SOUTHEAST WISCONSIN

CITY           SKY/WX    TMP DP  RH WIND       PRES   REMARKS
MILWAUKEE      PTSUNNY   70  59  68 N14       30.09S
WAUKESHA       SUNNY     64  55  72 N8        30.13R
MILWAUKEE/TIMM SUNNY     64  55  72 N8        30.11S
RACINE         MOSUNNY   67  59  75 N13       30.10S
BURLINGTON     MOSUNNY   65  58  78 N3        30.10S
KENOSHA        MOSUNNY   68  61  78 NE7       30.09S
FOND DU LAC    SUNNY     67  60  78 N7        30.14R
SHEBOYGAN      SUNNY     68  57  68 N8        30.12R
WEST BEND      CLOUDY    64  55  72 N5        30.12S
JUNEAU         CLOUDY    65  60  85 N6        30.14S
$$

LSZ147-162-311500-
LAKE SUPERIOR

STATION/POSITION TIME  TEMP    WIND        PRES    WAVE
                       AIR SEA DIR/SP/G            HT/PER
                 (UTC) (F)     (DEG/KT/KT) (MB)    (FT/S)
W MID LAKE BUOY  1350   65 67  330/ 10/ 12 1021.1S   1/ 3
DEVILS ISLAND    1400   64     350/ 11/ 12 1022.3S
PORT WING        1240   56     160/  2/  3 1022.7R
SAXON HARBOR     1300   58     190/  4/  7 1022.0S
$$

LMZ867-665-643>646-311500-
LAKE MICHIGAN

STATION/POSITION TIME  TEMP    WIND        PRES    WAVE
                       AIR SEA DIR/SP/G            HT/PER
                 (UTC) (F)     (DEG/KT/KT) (MB)    (FT/S)
CHAMBERS ISLAND  1300   66     320/  6/  8 1019.6S
N MID LAKE BUOY  1350   66 71  340/ 14/ 14 1018.4F   2/ 4
NORTHPORT PIER   1300   66     340/  9/ 11 1019.3
SISTER BAY       1337   69      10/ 12/ 14   N/A
ALGOMA LAKESHORE 1315          320/ 10/ 11   N/A
KEWAUNEE LAKESHO 1300   63     310/  4/  6 1019.0R
SHEBOYGAN LAKESH 1400   64     350/ 14/ 15 1019.2R
PORT WASHINGTON  1300   67     330/  6/ 10 1020.0
ATWATER BUOY     1400   65      10/ 14/ 19   N/A
MILWAUKEE LAKESH 1310   66     360/ 10/ 13   N/A
S MID LAKE BUOY  1350   71 75   30/ 17/ 19 1016.8R   4/ 6
KENOSHA   LAKESH 1400   67     360/ 13/ 16 1018.3S
$$

TC  - TEMPERATURE IN CELSIUS
VSB - VISIBILITY IN STATUTE MILES
WCI - WIND CHILL INDEX
HX  - HEAT INDEX




USA.gov is the U.S. government's official web portal to all federal, state and local government web resources and services.